TimeCST,TemperatureF,Dew PointF,Humidity,Sea Level PressureIn,VisibilityMPH,Wind Direction,Wind SpeedMPH,Gust SpeedMPH,PrecipitationIn,Events,Conditions,WindDirDegrees,DateUTC
12:56 AM,57.0,53.1,87,30.00,10.0,Variable,4.6,-,N/A,,Clear,0,2012-11-26 06:56:00
1:56 AM,57.0,54.0,89,29.99,10.0,Variable,4.6,-,N/A,,Clear,0,2012-11-26 07:56:00
2:56 AM,59.0,55.9,90,29.99,10.0,South,5.8,-,N/A,,Overcast,170,2012-11-26 08:56:00
3:13 AM,59.0,55.4,88,29.99,10.0,SSE,3.5,-,N/A,,Overcast,160,2012-11-26 09:13:00
3:56 AM,59.0,55.9,90,29.99,10.0,South,8.1,-,N/A,,Overcast,170,2012-11-26 09:56:00
4:56 AM,59.0,57.0,93,29.98,10.0,Variable,3.5,-,N/A,,Overcast,0,2012-11-26 10:56:00
5:04 AM,60.8,57.2,88,29.98,10.0,South,5.8,-,N/A,,Overcast,170,2012-11-26 11:04:00
5:16 AM,60.8,57.2,88,29.98,10.0,Variable,4.6,-,N/A,,Overcast,0,2012-11-26 11:16:00
5:34 AM,60.8,57.2,88,29.98,10.0,Variable,4.6,-,N/A,,Overcast,0,2012-11-26 11:34:00
5:56 AM,60.1,57.9,93,29.99,10.0,Variable,5.8,-,0.00,Rain,Light Rain,0,2012-11-26 11:56:00
6:56 AM,61.0,59.0,93,30.01,10.0,Calm,Calm,-,0.00,,Overcast,0,2012-11-26 12:56:00
7:56 AM,62.1,60.1,93,30.02,5.0,Calm,Calm,-,0.01,Rain,Light Rain,0,2012-11-26 13:56:00
8:37 AM,62.6,62.6,100,30.02,6.0,Variable,4.6,-,0.00,,Overcast,0,2012-11-26 14:37:00
8:56 AM,63.0,62.1,97,30.03,7.0,Variable,5.8,-,0.00,,Overcast,0,2012-11-26 14:56:00
9:56 AM,64.9,63.0,93,30.04,8.0,South,4.6,-,0.01,,Overcast,190,2012-11-26 15:56:00
10:19 AM,66.2,64.4,94,30.04,9.0,Variable,3.5,-,N/A,,Overcast,0,2012-11-26 16:19:00
10:56 AM,69.1,64.0,84,30.03,10.0,Variable,3.5,-,N/A,,Overcast,0,2012-11-26 16:56:00
11:48 AM,71.6,64.4,78,30.01,10.0,Variable,4.6,-,N/A,,Overcast,0,2012-11-26 17:48:00
11:56 AM,73.0,64.9,76,30.00,10.0,Variable,5.8,-,N/A,,Overcast,0,2012-11-26 17:56:00
12:56 PM,73.9,64.0,71,29.96,10.0,Variable,6.9,17.3,N/A,,Overcast,0,2012-11-26 18:56:00
1:13 PM,75.2,64.4,69,29.96,10.0,SW,8.1,-,N/A,,Scattered Clouds,230,2012-11-26 19:13:00
1:56 PM,77.0,63.0,62,29.95,10.0,WSW,10.4,19.6,N/A,,Clear,240,2012-11-26 19:56:00
2:56 PM,77.0,62.1,60,29.94,10.0,SW,5.8,18.4,N/A,,Clear,220,2012-11-26 20:56:00
3:56 PM,77.0,63.0,62,29.95,10.0,Variable,4.6,-,N/A,,Scattered Clouds,0,2012-11-26 21:56:00
4:56 PM,75.0,64.0,69,29.96,10.0,South,4.6,-,N/A,,Scattered Clouds,170,2012-11-26 22:56:00
5:56 PM,70.0,64.0,81,29.97,10.0,Calm,Calm,-,N/A,,Clear,0,2012-11-26 23:56:00
6:56 PM,69.1,64.9,87,29.99,10.0,SSE,3.5,-,N/A,,Partly Cloudy,160,2012-11-27 00:56:00
7:56 PM,68.0,64.9,90,30.00,10.0,Variable,3.5,-,N/A,,Clear,0,2012-11-27 01:56:00
8:56 PM,69.1,64.9,87,30.01,10.0,Calm,Calm,-,N/A,,Clear,0,2012-11-27 02:56:00
10:33 PM,69.8,66.2,88,30.02,10.0,Variable,3.5,-,N/A,,Mostly Cloudy,0,2012-11-27 04:33:00
10:56 PM,69.1,66.0,90,30.04,10.0,Calm,Calm,-,N/A,,Mostly Cloudy,0,2012-11-27 04:56:00
11:56 PM,69.1,66.0,90,30.04,10.0,Variable,6.9,-,N/A,,Overcast,0,2012-11-27 05:56:00